{"data":{"norad_id":60179,"intl_designator":"2024-122A","name":"ZHONGXING-3A","alt_names":[],"object_type":"PAYLOAD","status":"ACTIVE","operator":null,"country":"PRC","launch_date":"2024-06-29","launch_site_code":"WSC","launch_vehicle":null,"mission":null,"orbit_class":"UNKNOWN","rcs_meters":null,"size_class":null,"mass_kg":null,"dimensions":null,"purposes":["comms"],"wikipedia_slug":null,"has_3d_model":false,"image_url":null,"decayed_at":null,"tle_current":{"epoch":"2026-09-19T21:01:11.142624Z","epoch_age_seconds":72174,"freshness":"FRESH","line1":"1 60179U 24122A   26262.87582341 -.00000318  00000+0  00000+0 0  9991","line2":"2 60179   0.0336  12.4447 0002540 194.5650 208.6353  1.00272401  8259","mean_motion":1.00272401,"eccentricity":0.000254,"inclination_deg":0.0336,"raan_deg":12.4447,"arg_perigee_deg":194.565,"mean_anomaly_deg":208.6353,"bstar":0,"rev_number":825,"period_min":1436.0880817046,"perigee_km":35775.712476857,"apogee_km":35797.132072969,"semimajor_km":42164.559274913,"source":"CELESTRAK","updated_at":"2026-09-20T09:00:35.337912Z"}}}